Regional Weather Roundup
Issued by NWS Charleston, SC

Current Version | Previous Version | Text Only | Print | Product List | Glossary Off
Versions: 1 2 3 4 5 6 7 8 9 10 11 12 13 14 15 16 17 18 19 20 21 22 23 24 25 26 27 28 29 30 31 32 33 34 35 36 37 38 39 40 41 42 43 44 45 46 47 48 49 50
000 ASUS42 KCHS 280828 RWRCHS REGIONAL WEATHER ROUNDUP NATIONAL WEATHER SERVICE CHARLESTON SC 400 AM EDT THU JUL 28 2016 NOTE: "FAIR" INDICATES FEW OR NO CLOUDS BELOW 12,000 FEET WITH NO SIGNIFICANT WEATHER AND/OR OBSTRUCTIONS TO VISIBILITY. NOT ALL STATIONS ARE QUALITY CONTROLLED. USE DATA WITH CAUTION... ESPECIALLY DEWPOINT OBSERVATIONS. SCZ027-030-031-034>040-042>050-280900- ...SOUTHEAST SOUTH CAROLINA... CITY SKY/WX TMP DP RH WIND PRES REMARKS N CHARLESTON PTCLDY 83 76 79 W7 29.98S HX 91 WATERFRONT PRK N/A 85 80 85 VRB3 29.97S HX 99 MOUNT PLEASANT FAIR 84 79 84 W6 29.98S HX 96 JOHNS ISLAND FAIR 84 79 84 SW6 29.99S HX 96 PINOPOLIS N/A 82 79 89 SW10 29.91S HX 93 MONCKS CORNER FAIR 77 73 88 SW5 29.98S SUMMERVILLE NOT AVBL BEAUFORT MCAS CLEAR 82 73 74 W6 30.00S BEAUFORT ARPT FAIR 82 73 74 SW8 30.00S HILTON HEAD IS CLEAR 82 75 78 VRB5 30.01F WALTERBORO SUNNY 81 77 89 W6 30.00F ALLENDALE FAIR 79 72 78 CALM 29.99F ...SOUTHERN MIDLANDS AND PEE DEE... CITY SKY/WX TMP DP RH WIND PRES REMARKS GEORGETOWN NOT AVBL KINGSTREE FAIR 79 73 83 CALM 29.97S ORANGEBURG CLEAR 81 71 71 W6 29.99F BARNWELL NOT AVBL AIKEN FAIR 75 70 83 SW3 30.03F MANNING FAIR 79 72 78 SW3 29.97F COLUMBIA CLEAR 80 70 71 SW3 29.97F SUMTER CLEAR 81 71 70 SW7 29.95S FLORENCE CLEAR 82 72 71 SW7 29.96F MYRTLE BEACH CLEAR 82 72 69 W9 29.98S N MYRTLE BEACH CLEAR 83 77 82 W7 29.95S HX 92 $$ GAZ063-065-086>088-099>101-113>116-118-119-134>141-150-280900- ...SOUTHEAST GEORGIA... CITY SKY/WX TMP DP RH WIND PRES REMARKS SAVANNAH ARPT CLEAR 80 72 76 SW5 30.02F HUNTER AAF CLEAR 80 77 91 SW6 29.99F FORT STEWART CLEAR 77 72 85 CALM 30.01S STATESBORO CLEAR 80 73 79 W3 30.01F SYLVANIA NOT AVBL CLAXTON FAIR 74 74 98 CALM 30.02S ...CSRA...CENTRAL AND FAR SOUTHEAST GEORGIA... CITY SKY/WX TMP DP RH WIND PRES REMARKS THOMSON NOT AVBL AUGUSTA-BUSH CLEAR 79 70 74 W5 29.99F AUGUSTA-DANIEL PTCLDY 83 69 62 W6 30.01F SWAINSBORO FAIR 79 70 73 CALM 30.03S VIDALIA CLEAR 77 70 78 SW3 30.04R EASTMAN FAIR 75 73 94 S3 30.07R HAZLEHURST FAIR 79 75 87 CALM 30.04S ALMA CLEAR 78 73 84 CALM 30.05R WAYCROSS CLEAR 81 77 89 W3 30.04F JESUP FAIR 75 73 94 CALM 30.04F BAXLEY FAIR 77 77 100 CALM 30.04S BRUNSWICK CLEAR 81 77 89 SW6 30.04F SAINT SIMONS CLEAR 81 75 82 SW9 30.04S $$ SCZ027-028-034-036>038-045-046-048>050-GAZ119-141-280900- ...LAKE AND SUPPLEMENTAL COASTAL OBSERVATIONS... STATION/POSITION TIME TEMP WIND PRES WAVE SWELL AIR SEA DIR/SP/G HT/PER HT/PER/DIR (UTC) (F) (DEG/KT/KT) (MB) (FT/S) (FT/S/D) WINYAH BAY 0700 83 240/ 7 1014.0 LAKE MURRAY 0700 85 260/ 11/ 16 1014.6S ACE BASIN NERRS 0715 83 240/ 1 1016.0S FORT PULASKI 0800 83 87 220/ 5/ 7 1016.7F SAPELO ISLAND 0800 83 230/ 9 1017.0S $$ ANZ835-935-AMZ111-154-330-350-352-354-370-450-454-472-280900- ...C-MAN AND BUOY OBSERVATIONS... STATION/POSITION TIME TEMP WIND PRES WAVE SWELL AIR SEA DIR/SP/G HT/PER HT/PER/DIR (UTC) (F) (DEG/KT/KT) (MB) (FT/S) (FT/S/D) BUOY 41004 0750 86 86 230/ 21/ 23 1014.3F 4/ 5 2/150/ 8 BUOY 41008 0750 86 87 210/ 17/ 21 1016.2S 4/ 4 2/100/ 8 FOLLY BEACH CMAN 0800 85 250/ 7/ 9 1015.6R CAPERS NEARSHORE 0808 85 84 260/ 14/ 19 1014.9R FRIPP NEARSHORE 0708 86 87 240/ 17/ 23 1015.2F STATION/POSITION TIME TEMP WIND PRES WAVE SWELL AIR SEA DIR/SP/G HT/PER HT/PER/DIR (UTC) (F) (DEG/KT/KT) (MB) (FT/S) (FT/S/D) 5E ST. MARYS GA 0801 85 N/A 2/ 4 FRYING PAN BUOY 0800 85 85 240/ 17/ 21 1014.0S BUOY 41025 0750 84 84 250/ 4/ 8 1013.2S 4/ 5 3/210/ 5 CAPE LOOKOUT NC 0800 83 240/ 9/ 11 1013.5R BUOY 41002 0750 84 85 270/ 12/ 14 1015.3F 3/ 5 2/240/ 6 BUOY 41010 0720 85 87 210/ 8/ 10 1017.4F ST AUGUSTINE FL 0800 80 84 230/ 5/ 6 1018.5R $$

USA.gov is the U.S. government's official web portal to all federal, state and local government web resources and services.